When you browse on this site, cookies collect data to enhance your experience and personalize the content and advertising you see.
Visit our Privacy Policy to learn more. By continuing to use the site, you agree to this use of cookies and data.
  • In Hungary
  • List of Countries
  • For 7 days
  • Water Temperature
  • Weather Map
  • News
  • Weather Widgets
  • user-avatar
    Login

    Hourly Weather Zawisc

    Today, 19 September, Thursday

    Time Temperature Precipitation Wind Pressure Humidity
    00:00 +9°C° 0 mm 3 mps 752 mmHg 74%
    01:00 +8°C° 0 mm 3 mps 752 mmHg 76%
    02:00 +7°C° 0 mm 3 mps 752 mmHg 79%
    03:00 +7°C° 0 mm 3 mps 752 mmHg 81%
    04:00 +7°C° 0 mm 3 mps 752 mmHg 84%
    05:00 +6°C° 0.1 mm 4 mps 752 mmHg 84%
    06:00 +6°C° 0.1 mm 4 mps 752 mmHg 85%
    07:00 +6°C° 0.1 mm 5 mps 753 mmHg 86%
    08:00 +8°C° 0 mm 5 mps 753 mmHg 80%
    09:00 +9°C° 0 mm 5 mps 753 mmHg 75%
    10:00 +10°C° 0 mm 5 mps 753 mmHg 69%
    11:00 +12°C° 0.5 mm 5 mps 753 mmHg 66%
    12:00 +13°C° 0.5 mm 6 mps 753 mmHg 62%
    13:00 +14°C° 0.5 mm 6 mps 753 mmHg 59%
    14:00 +14°C° 0.2 mm 6 mps 753 mmHg 58%
    15:00 +14°C° 0.2 mm 6 mps 753 mmHg 56%
    16:00 +14°C° 0.2 mm 6 mps 753 mmHg 55%
    17:00 +12°C° 0 mm 5 mps 753 mmHg 60%
    18:00 +11°C° 0 mm 4 mps 754 mmHg 66%
    19:00 +9°C° 0 mm 3 mps 754 mmHg 72%
    20:00 +9°C° 0 mm 3 mps 754 mmHg 73%
    21:00 +8°C° 0 mm 2 mps 755 mmHg 73%
    22:00 +8°C° 0 mm 2 mps 755 mmHg 74%
    23:00 +7°C° 0 mm 2 mps 755 mmHg 76%

    Tomorrow, 20 September, Friday

    Time Temperature Precipitation Wind Pressure Humidity
    00:00 +7°C° 0 mm 2 mps 755 mmHg 78%
    01:00 +7°C° 0 mm 2 mps 755 mmHg 80%
    02:00 +6°C° 0 mm 2 mps 755 mmHg 82%
    03:00 +6°C° 0 mm 2 mps 755 mmHg 84%
    04:00 +6°C° 0 mm 2 mps 755 mmHg 85%
    05:00 +6°C° 0 mm 2 mps 755 mmHg 85%
    06:00 +7°C° 0 mm 2 mps 755 mmHg 84%
    07:00 +7°C° 0 mm 3 mps 755 mmHg 84%
    08:00 +9°C° 0 mm 3 mps 755 mmHg 76%
    09:00 +11°C° 0 mm 3 mps 756 mmHg 69%
    10:00 +13°C° 0 mm 3 mps 756 mmHg 61%
    11:00 +13°C° 0 mm 4 mps 755 mmHg 57%
    12:00 +14°C° 0 mm 4 mps 755 mmHg 54%
    13:00 +15°C° 0 mm 4 mps 755 mmHg 50%
    14:00 +15°C° 0 mm 4 mps 754 mmHg 50%
    15:00 +14°C° 0 mm 3 mps 754 mmHg 50%
    16:00 +14°C° 0 mm 3 mps 754 mmHg 51%
    17:00 +14°C° 0 mm 2 mps 754 mmHg 56%
    18:00 +12°C° 0 mm 2 mps 754 mmHg 61%
    19:00 +11°C° 0 mm 1 mps 754 mmHg 66%
    20:00 +10°C° 0 mm 1 mps 754 mmHg 68%
    21:00 +10°C° 0 mm 1 mps 755 mmHg 70%
    22:00 +9°C° 0 mm 1 mps 755 mmHg 72%
    23:00 +8°C° 0 mm 2 mps 755 mmHg 74%

    Day after tomorrow, 21 September, Saturday

    Time Temperature Precipitation Wind Pressure Humidity
    00:00 +8°C° 0 mm 2 mps 755 mmHg 76%
    01:00 +7°C° 0 mm 2 mps 754 mmHg 78%
    02:00 +7°C° 0 mm 2 mps 754 mmHg 79%
    03:00 +7°C° 0 mm 2 mps 754 mmHg 81%
    04:00 +7°C° 0 mm 2 mps 754 mmHg 82%
    05:00 +7°C° 0 mm 2 mps 754 mmHg 80%
    06:00 +8°C° 0 mm 2 mps 754 mmHg 77%
    07:00 +8°C° 0 mm 2 mps 754 mmHg 75%
    08:00 +10°C° 0 mm 2 mps 753 mmHg 67%
    09:00 +13°C° 0 mm 2 mps 753 mmHg 60%
    10:00 +15°C° 0 mm 2 mps 753 mmHg 53%
    11:00 +16°C° 0 mm 2 mps 753 mmHg 50%
    12:00 +18°C° 0 mm 2 mps 753 mmHg 46%
    13:00 +19°C° 0 mm 2 mps 752 mmHg 43%
    14:00 +19°C° 0 mm 2 mps 752 mmHg 43%
    15:00 +20°C° 0 mm 1 mps 752 mmHg 43%
    16:00 +20°C° 0 mm 1 mps 751 mmHg 44%
    17:00 +18°C° 0 mm 1 mps 751 mmHg 48%
    18:00 +16°C° 0 mm 1 mps 751 mmHg 53%
    19:00 +14°C° 0 mm 1 mps 751 mmHg 58%
    20:00 +13°C° 0 mm 1 mps 751 mmHg 60%
    21:00 +13°C° 0 mm 2 mps 751 mmHg 62%
    22:00 +12°C° 0 mm 2 mps 751 mmHg 64%
    23:00 +12°C° 0 mm 2 mps 751 mmHg 64%

    22 September, Sunday

    Time Temperature Precipitation Wind Pressure Humidity
    00:00 +10°C° 0 mm 2 mps 750 mmHg 63%
    01:00 +10°C° 0 mm 2 mps 750 mmHg 63%
    02:00 +10°C° 0 mm 3 mps 750 mmHg 63%
    03:00 +10°C° 0 mm 3 mps 750 mmHg 63%
    04:00 +9°C° 0 mm 3 mps 749 mmHg 63%
    05:00 +10°C° 0 mm 3 mps 749 mmHg 61%
    06:00 +10°C° 0 mm 4 mps 749 mmHg 59%
    07:00 +11°C° 0 mm 4 mps 749 mmHg 58%
    08:00 +13°C° 0 mm 4 mps 749 mmHg 51%
    09:00 +16°C° 0 mm 5 mps 749 mmHg 44%
    10:00 +19°C° 0 mm 5 mps 748 mmHg 37%
    11:00 +20°C° 0 mm 5 mps 748 mmHg 36%
    12:00 +21°C° 0 mm 5 mps 747 mmHg 35%
    13:00 +22°C° 0 mm 4 mps 747 mmHg 33%
    14:00 +22°C° 0 mm 4 mps 746 mmHg 36%
    15:00 +22°C° 0 mm 3 mps 746 mmHg 38%
    16:00 +21°C° 0 mm 3 mps 745 mmHg 41%
    17:00 +20°C° 0 mm 3 mps 745 mmHg 45%
    18:00 +18°C° 0 mm 3 mps 745 mmHg 50%
    19:00 +16°C° 0 mm 3 mps 744 mmHg 54%
    20:00 +16°C° 0 mm 3 mps 744 mmHg 55%
    21:00 +16°C° 0 mm 3 mps 744 mmHg 56%
    22:00 +14°C° 0 mm 3 mps 743 mmHg 57%
    23:00 +14°C° 0 mm 3 mps 743 mmHg 57%

    23 September, Monday

    Time Temperature Precipitation Wind Pressure Humidity
    00:00 +16°C° 0 mm 3 mps 743 mmHg 57%
    01:00 +16°C° 0 mm 3 mps 742 mmHg 57%
    02:00 +14°C° 0 mm 3 mps 742 mmHg 57%
    03:00 +14°C° 0 mm 3 mps 741 mmHg 58%
    04:00 +13°C° 0 mm 3 mps 741 mmHg 58%
    05:00 +13°C° 0 mm 3 mps 741 mmHg 60%
    06:00 +13°C° 0 mm 3 mps 741 mmHg 61%
    07:00 +13°C° 0 mm 3 mps 741 mmHg 62%
    08:00 +16°C° 0 mm 3 mps 741 mmHg 58%
    09:00 +18°C° 0 mm 4 mps 741 mmHg 54%
    10:00 +19°C° 0 mm 4 mps 741 mmHg 50%
    11:00 +20°C° 0 mm 5 mps 741 mmHg 52%
    12:00 +20°C° 0 mm 5 mps 741 mmHg 55%
    13:00 +21°C° 0 mm 6 mps 741 mmHg 58%
    14:00 +20°C° 0 mm 6 mps 741 mmHg 64%
    15:00 +17°C° 0 mm 7 mps 741 mmHg 70%
    16:00 +16°C° 0 mm 7 mps 741 mmHg 76%
    17:00 +15°C° 0.7 mm 7 mps 741 mmHg 81%
    18:00 +15°C° 0.7 mm 7 mps 741 mmHg 86%
    19:00 +14°C° 0.7 mm 6 mps 741 mmHg 90%
    20:00 +14°C° 0.9 mm 6 mps 742 mmHg 90%
    21:00 +13°C° 0.9 mm 6 mps 742 mmHg 90%
    22:00 +13°C° 0.9 mm 6 mps 742 mmHg 89%
    23:00 +13°C° 0.5 mm 6 mps 742 mmHg 90%

    24 September, Tuesday

    Time Temperature Precipitation Wind Pressure Humidity
    00:00 +13°C° 0.5 mm 5 mps 742 mmHg 90%
    01:00 +13°C° 0.5 mm 4 mps 743 mmHg 91%
    02:00 +13°C° 0.6 mm 4 mps 742 mmHg 91%
    03:00 +13°C° 0.6 mm 5 mps 742 mmHg 90%
    04:00 +12°C° 0.6 mm 5 mps 742 mmHg 90%
    05:00 +12°C° 0.6 mm 5 mps 742 mmHg 89%
    06:00 +12°C° 0.6 mm 5 mps 742 mmHg 88%
    07:00 +11°C° 0.6 mm 6 mps 742 mmHg 87%
    08:00 +13°C° 0.1 mm 5 mps 743 mmHg 84%
    09:00 +14°C° 0.1 mm 5 mps 743 mmHg 80%
    10:00 +15°C° 0.1 mm 5 mps 743 mmHg 76%
    11:00 +16°C° 0 mm 5 mps 743 mmHg 70%
    12:00 +17°C° 0 mm 5 mps 743 mmHg 63%
    13:00 +20°C° 0 mm 5 mps 743 mmHg 56%
    14:00 +20°C° 0 mm 4 mps 743 mmHg 58%
    15:00 +19°C° 0 mm 4 mps 743 mmHg 60%
    16:00 +19°C° 0 mm 4 mps 743 mmHg 62%
    17:00 +18°C° 0 mm 4 mps 743 mmHg 68%
    18:00 +17°C° 0 mm 4 mps 743 mmHg 74%
    19:00 +15°C° 0 mm 4 mps 743 mmHg 80%
    20:00 +14°C° 0 mm 3 mps 743 mmHg 81%
    21:00 +14°C° 0 mm 3 mps 743 mmHg 83%
    22:00 +14°C° 0 mm 3 mps 743 mmHg 85%
    23:00 +14°C° 0 mm 3 mps 743 mmHg 87%
    Show more